User: anonymous   Login
Location: Caltech
(34.1382°N, 118.1253°W)
Time: 17:21:59
(UTC-08:00)
Language:

ASTRO E2 - Orbit

View from above orbital plane
View from above orbital plane
View from above satellite
View from above satellite

Ground track
Ground track

The orbit data is extracted from the following two-line orbital elements,

1 28773U 05025A   16038.97421955  .00003277  00000-0  17038-3 0  9990
2 28773  31.3828 264.4140 0004763  60.4361 299.6760 15.14227750582182
Epoch (UTC): 07 February 2016 23:22:52
Eccentricity: 0.0004763
inclination: 31.3828°
perigee height: 520 km
apogee height: 526 km
right ascension of ascending node: 264.4140°
argument of perigee: 60.4361°
revolutions per day: 15.14227750
mean anomaly at epoch: 299.6760°
orbit number at epoch: 58218

The dashed part of the orbit path shows where the satellite is in the earth's shadow,  

DLR